When you browse on this site, cookies collect data to enhance your experience and personalize the content and advertising you see.
Visit our Privacy Policy to learn more. By continuing to use the site, you agree to this use of cookies and data.
  • en France
  • Liste des pays
  • À 7 jours
  • Température de l'eau
  • Carte météo
  • Widgets météo
  • user-avatar
    Se connecter

    Météo par heure à Trnava

    Ce jour, 18 Août, Dimanche

    Heure Température Précipitation Vent Pression Humidité
    00:00 +21°C° 0 mm 1 m/s 748 mmHg 62%
    01:00 +21°C° 0 mm 1 m/s 748 mmHg 64%
    02:00 +20°C° 0 mm 2 m/s 748 mmHg 64%
    03:00 +20°C° 0 mm 2 m/s 748 mmHg 65%
    04:00 +20°C° 0 mm 2 m/s 747 mmHg 65%
    05:00 +20°C° 0 mm 2 m/s 748 mmHg 66%
    06:00 +20°C° 0 mm 2 m/s 748 mmHg 66%
    07:00 +20°C° 0 mm 2 m/s 748 mmHg 65%
    08:00 +23°C° 0 mm 2 m/s 748 mmHg 61%
    09:00 +24°C° 0 mm 3 m/s 748 mmHg 58%
    10:00 +26°C° 0 mm 3 m/s 748 mmHg 54%
    11:00 +27°C° 0 mm 3 m/s 747 mmHg 51%
    12:00 +29°C° 0 mm 4 m/s 747 mmHg 47%
    13:00 +30°C° 0 mm 4 m/s 747 mmHg 43%
    14:00 +32°C° 0 mm 4 m/s 747 mmHg 42%
    15:00 +33°C° 0 mm 4 m/s 747 mmHg 40%
    16:00 +33°C° 0 mm 4 m/s 747 mmHg 38%
    17:00 +30°C° 0 mm 3 m/s 747 mmHg 44%
    18:00 +29°C° 0 mm 3 m/s 747 mmHg 50%
    19:00 +27°C° 0 mm 3 m/s 747 mmHg 55%
    20:00 +26°C° 0 mm 3 m/s 747 mmHg 58%
    21:00 +25°C° 0 mm 2 m/s 747 mmHg 62%
    22:00 +24°C° 0 mm 2 m/s 747 mmHg 65%
    23:00 +23°C° 0 mm 2 m/s 747 mmHg 66%

    Demain, 19 Août, Lundi

    Heure Température Précipitation Vent Pression Humidité
    00:00 +21°C° 0 mm 2 m/s 747 mmHg 67%
    01:00 +21°C° 0 mm 3 m/s 747 mmHg 68%
    02:00 +21°C° 0 mm 3 m/s 747 mmHg 69%
    03:00 +20°C° 0 mm 3 m/s 747 mmHg 69%
    04:00 +20°C° 0 mm 3 m/s 748 mmHg 70%
    05:00 +21°C° 0 mm 3 m/s 748 mmHg 67%
    06:00 +21°C° 0 mm 3 m/s 749 mmHg 65%
    07:00 +23°C° 0 mm 2 m/s 749 mmHg 63%
    08:00 +25°C° 0 mm 2 m/s 749 mmHg 58%
    09:00 +27°C° 0 mm 3 m/s 749 mmHg 53%
    10:00 +28°C° 0 mm 3 m/s 749 mmHg 48%
    11:00 +30°C° 0 mm 3 m/s 750 mmHg 46%
    12:00 +32°C° 0 mm 4 m/s 750 mmHg 43%
    13:00 +33°C° 0 mm 4 m/s 750 mmHg 41%
    14:00 +32°C° 0 mm 4 m/s 750 mmHg 45%
    15:00 +29°C° 0 mm 4 m/s 750 mmHg 49%
    16:00 +28°C° 0 mm 4 m/s 750 mmHg 54%
    17:00 +27°C° 0 mm 4 m/s 750 mmHg 58%
    18:00 +25°C° 0 mm 3 m/s 750 mmHg 62%
    19:00 +24°C° 0 mm 3 m/s 751 mmHg 66%
    20:00 +24°C° 0 mm 3 m/s 751 mmHg 67%
    21:00 +22°C° 0 mm 3 m/s 751 mmHg 68%
    22:00 +21°C° 0 mm 3 m/s 751 mmHg 69%
    23:00 +21°C° 0 mm 2 m/s 751 mmHg 72%

    Après-demain, 20 Août, Mardi

    Heure Température Précipitation Vent Pression Humidité
    00:00 +20°C° 0 mm 2 m/s 751 mmHg 74%
    01:00 +20°C° 0 mm 2 m/s 751 mmHg 76%
    02:00 +19°C° 0 mm 2 m/s 751 mmHg 78%
    03:00 +19°C° 0 mm 2 m/s 751 mmHg 79%
    04:00 +20°C° 0 mm 1 m/s 751 mmHg 81%
    05:00 +21°C° 0 mm 1 m/s 751 mmHg 77%
    06:00 +22°C° 0 mm 1 m/s 752 mmHg 73%
    07:00 +23°C° 0 mm 1 m/s 752 mmHg 70%
    08:00 +25°C° 0 mm 2 m/s 752 mmHg 63%
    09:00 +27°C° 0 mm 2 m/s 752 mmHg 57%
    10:00 +29°C° 0 mm 2 m/s 752 mmHg 51%
    11:00 +30°C° 0 mm 2 m/s 752 mmHg 48%
    12:00 +33°C° 0 mm 3 m/s 751 mmHg 44%
    13:00 +34°C° 0 mm 3 m/s 751 mmHg 40%
    14:00 +34°C° 0 mm 3 m/s 751 mmHg 39%
    15:00 +35°C° 0 mm 4 m/s 750 mmHg 38%
    16:00 +35°C° 0 mm 4 m/s 750 mmHg 38%
    17:00 +33°C° 0 mm 3 m/s 749 mmHg 42%
    18:00 +30°C° 0 mm 3 m/s 749 mmHg 46%
    19:00 +29°C° 0 mm 3 m/s 749 mmHg 50%
    20:00 +27°C° 0 mm 2 m/s 749 mmHg 52%
    21:00 +26°C° 0 mm 2 m/s 749 mmHg 55%
    22:00 +25°C° 0 mm 2 m/s 750 mmHg 58%
    23:00 +25°C° 0 mm 2 m/s 750 mmHg 61%

    21 Août, Mercredi

    Heure Température Précipitation Vent Pression Humidité
    00:00 +24°C° 0 mm 2 m/s 750 mmHg 64%
    01:00 +23°C° 0 mm 2 m/s 750 mmHg 67%
    02:00 +21°C° 0 mm 3 m/s 751 mmHg 73%
    03:00 +21°C° 0 mm 4 m/s 751 mmHg 79%
    04:00 +20°C° 0 mm 4 m/s 752 mmHg 84%
    05:00 +20°C° 0 mm 4 m/s 752 mmHg 82%
    06:00 +20°C° 0 mm 5 m/s 753 mmHg 80%
    07:00 +20°C° 0 mm 5 m/s 753 mmHg 78%
    08:00 +21°C° 0 mm 5 m/s 753 mmHg 74%
    09:00 +22°C° 0 mm 6 m/s 753 mmHg 70%
    10:00 +23°C° 0 mm 6 m/s 753 mmHg 66%
    11:00 +24°C° 0 mm 7 m/s 753 mmHg 63%
    12:00 +26°C° 0 mm 7 m/s 753 mmHg 60%
    13:00 +27°C° 0 mm 7 m/s 753 mmHg 57%
    14:00 +27°C° 0 mm 7 m/s 753 mmHg 57%
    15:00 +26°C° 0 mm 7 m/s 753 mmHg 57%
    16:00 +26°C° 0 mm 7 m/s 753 mmHg 57%
    17:00 +24°C° 0 mm 6 m/s 753 mmHg 61%
    18:00 +22°C° 0 mm 5 m/s 753 mmHg 64%
    19:00 +21°C° 0 mm 5 m/s 753 mmHg 68%
    20:00 +20°C° 0 mm 4 m/s 754 mmHg 71%
    21:00 +19°C° 0 mm 4 m/s 754 mmHg 74%
    22:00 +18°C° 0 mm 4 m/s 754 mmHg 77%
    23:00 +18°C° 0 mm 3 m/s 754 mmHg 78%

    22 Août, Jeudi

    Heure Température Précipitation Vent Pression Humidité
    00:00 +17°C° 0 mm 3 m/s 754 mmHg 80%
    01:00 +17°C° 0 mm 3 m/s 754 mmHg 82%
    02:00 +17°C° 0 mm 3 m/s 754 mmHg 83%
    03:00 +16°C° 0 mm 3 m/s 754 mmHg 85%
    04:00 +16°C° 0 mm 2 m/s 753 mmHg 86%
    05:00 +17°C° 0 mm 3 m/s 754 mmHg 83%
    06:00 +17°C° 0 mm 3 m/s 754 mmHg 80%
    07:00 +18°C° 0 mm 3 m/s 754 mmHg 77%
    08:00 +20°C° 0 mm 3 m/s 754 mmHg 71%
    09:00 +21°C° 0 mm 3 m/s 754 mmHg 66%
    10:00 +24°C° 0 mm 3 m/s 754 mmHg 60%
    11:00 +25°C° 0 mm 3 m/s 754 mmHg 56%
    12:00 +26°C° 0 mm 3 m/s 754 mmHg 53%
    13:00 +28°C° 0 mm 3 m/s 753 mmHg 50%
    14:00 +27°C° 0 mm 3 m/s 753 mmHg 50%
    15:00 +27°C° 0 mm 4 m/s 753 mmHg 51%
    16:00 +27°C° 0 mm 4 m/s 753 mmHg 51%
    17:00 +26°C° 0 mm 4 m/s 753 mmHg 56%
    18:00 +23°C° 0 mm 4 m/s 753 mmHg 61%
    19:00 +21°C° 0 mm 4 m/s 753 mmHg 66%
    20:00 +20°C° 0 mm 3 m/s 754 mmHg 69%
    21:00 +19°C° 0 mm 3 m/s 754 mmHg 71%
    22:00 +18°C° 0 mm 3 m/s 754 mmHg 74%
    23:00 +18°C° 0 mm 3 m/s 754 mmHg 76%

    23 Août, Vendredi

    Heure Température Précipitation Vent Pression Humidité
    00:00 +17°C° 0 mm 3 m/s 754 mmHg 78%
    01:00 +16°C° 0 mm 3 m/s 754 mmHg 80%
    02:00 +16°C° 0 mm 2 m/s 754 mmHg 83%
    03:00 +15°C° 0 mm 2 m/s 754 mmHg 85%
    04:00 +15°C° 0 mm 2 m/s 754 mmHg 87%
    05:00 +16°C° 0 mm 2 m/s 754 mmHg 83%
    06:00 +16°C° 0 mm 2 m/s 755 mmHg 79%
    07:00 +17°C° 0 mm 2 m/s 755 mmHg 75%
    08:00 +19°C° 0 mm 2 m/s 755 mmHg 69%
    09:00 +21°C° 0 mm 2 m/s 755 mmHg 64%
    10:00 +24°C° 0 mm 2 m/s 755 mmHg 58%
    11:00 +26°C° 0 mm 2 m/s 755 mmHg 56%
    12:00 +27°C° 0 mm 1 m/s 755 mmHg 53%
    13:00 +28°C° 0 mm 1 m/s 755 mmHg 51%
    14:00 +28°C° 0 mm 1 m/s 754 mmHg 50%
    15:00 +29°C° 0 mm 2 m/s 754 mmHg 50%
    16:00 +29°C° 0 mm 2 m/s 754 mmHg 49%
    17:00 +27°C° 0 mm 1 m/s 754 mmHg 56%
    18:00 +25°C° 0 mm 1 m/s 754 mmHg 62%
    19:00 +23°C° 0 mm 1 m/s 754 mmHg 69%
    20:00 +23°C° 0 mm 1 m/s 754 mmHg 70%
    21:00 +21°C° 0 mm 2 m/s 754 mmHg 70%
    22:00 +20°C° 0 mm 2 m/s 754 mmHg 71%
    23:00 +19°C° 0 mm 2 m/s 754 mmHg 73%
    Voir plus